Regional Weather Roundup
Issued by NWS Bismarck, ND

Home | Current Version | Previous Version | Text Only | Print | Product List | Glossary On
Versions: 1 2 3 4 5 6 7 8 9 10 11 12 13 14 15 16 17 18 19 20 21 22 23 24 25 26 27 28 29 30 31 32 33 34 35 36 37 38 39 40 41 42 43 44 45 46 47 48 49 50
478
ASUS43 KBIS 261110
RWRBIS

NWR BROADCAST TEXT
NATIONAL WEATHER SERVICE BISMARCK ND
600 AM CDT THU MAY 26 2016

NOTE: "FAIR" INDICATES FEW OR NO CLOUDS BELOW 12,000 FEET WITH NO
SIGNIFICANT WEATHER AND/OR OBSTRUCTIONS TO VISIBILITY.


CITY           SKY/WX    TMP DP  RH WIND       PRES   REMARKS
WILLISTON      FOG       47  46  97 W5        29.80F VSB 3/4
MINOT          CLOUDY    57  54  89 W9        29.75R
MINOT AFB      MOCLDY    55  55  97 NW7       29.74S FOG
BISMARCK       CLEAR     45  44  97 SW3       29.80S
DICKINSON      CLOUDY    41  38  89 SW3       29.80F
GARRISON         N/A     49  48  97 W9        29.78R
HETTINGER ARPT CLEAR     35  34  96 W5        29.86S
JAMESTOWN      CLOUDY    55  53  93 W12       29.75R
BEACH          CLOUDY    48  48 100 W9        29.86S
CARRINGTON     CLOUDY    55  54  94 W15       29.77R FOG
HAZEN          FAIR      41  41 100 SW8       29.82R
LINTON           N/A     45  45 100 W6          N/A
MANDAN         FAIR      43  43 100 W8        29.81F
OAKES            N/A    N/A N/A N/A MISG        N/A
RUGBY          CLOUDY    55  55 100 CALM      29.74S
STANLEY        CLOUDY    50  50 100 W10G16    29.80R FOG
WATFORD CITY   FAIR      39  39 100 SW6       29.81S FOG
$$

CITY           SKY/WX    TMP DP  RH WIND       PRES   REMARKS
GRAND FORKS    CLOUDY    57  55  93 SW3       29.71S
GRAND FORKS AF CLOUDY    55  55 100 CALM      29.72S
DEVILS LAKE    CLOUDY    55  54  94 W6        29.73F
FARGO          CLEAR     54  51  90 W7        29.73S
CANDO          CLOUDY    54  54 100 NW7       29.76R
CAVALIER       CLOUDY    57  55  94 W8        29.67S
GRAFTON        CLOUDY    57  57 100 SW7       29.71S
GWINNER        FAIR      54  52  94 SW10      29.78R
LANGDON        CLOUDY    55  55 100 NW12      29.71R
ROLLA          PTSUNNY   54  54 100 N7        29.76R
WALHALLA       FAIR      55  55 100 NW7       29.68R
$$

CITY           SKY/WX    TMP DP  RH WIND       PRES   REMARKS
ABERDEEN       CLEAR     48  46  93 W5        29.82R
MOBRIDGE       CLEAR     48  43  82 N7        29.80F
BUFFALO          N/A     42  38  85 S5        29.81R
RAPID CITY     CLEAR     46  42  86 CALM      29.88S
GLASGOW        PTCLDY    44  42  93 W6        29.83S
SIDNEY         MOCLDY    46  44  93 N5        29.81F
WOLF POINT     PTCLDY    43  42  97 SW3       29.83R
GLENDIVE       CLOUDY    52  46  82 W6        29.86R
MILES CITY     CLOUDY    49  45  86 W8        29.86F
BAKER          PTCLDY    45  42  89 W8        29.86S
$$

CITY           SKY/WX    TMP DP  RH WIND       PRES   REMARKS
BILLINGS       PTCLDY    49  42  77 SW12      29.93S
GREAT FALLS    CLOUDY    42  39  89 SW6       29.95R
REGINA         LGT RAIN  52  52 100 NE14      29.83S
ESTEVAN        LGT RAIN  52  52 100 CALM      29.76S
$$





USA.gov is the U.S. government's official web portal to all federal, state and local government web resources and services.